Flag for Jamaica Weather past 2 weeks in Montego Bay, Jamaica

Now
77 °F

Passing clouds.


Feels Like: 78 °F
Forecast: 74 / 84 °F
Wind: 7 mph from East

Location: Montego Bay / Sangster

Current Time: Dec 20, 2014 at 11:56:04 PM

Latest Report: Dec 20, 2014 at 11:00 PM


Visibility: N/A

Pressure: 29.98 "Hg

Humidity: 83%

Dew point: 72 °F

Location of Montego BayLocation

Historic Weather in Montego Bay — Graph

°F

Montego Bay temperature yesterday

Maximum temperature yesterday: 84 °F (at 1:00 PM)
Minimum temperature yesterday: 75 °F (at 12:00 AM)
Average temperature yesterday: 78 °F

Past Weeks' High & Low Weather Summary

 TemperatureHumidityPressure
High86 °F (Dec 6, 1:00 PM)100% (Dec 12, 11:45 PM)30.07 "Hg (Dec 12, 11:45 PM)
Low72 °F (Dec 11, 7:00 AM)62% (Dec 19, 1:00 PM)29.86 "Hg (Dec 14, 3:00 AM)
Average78 °F85%29.95 "Hg
* Reported Dec 5 11:00 PM — Dec 20 11:00 PM, Montego Bay, Weather by CustomWeather, © 2014

Note: Actual official high and low records may vary slightly from our data, if they occured in-between our weather recording intervals... More about our weather records

Advertising

Montego Bay weather history for previous 24 hours

 ConditionsComfort  
Time TempWeatherWind HumidityBarometerVisibility
11:00 PM
Dec 20
77 °FPassing clouds.7 mph83%29.98 "HgN/A
10:00 PM77 °FPassing clouds.10 mph89%29.98 "HgN/A
9:00 PM79 °FPassing clouds.7 mph84%30.01 "HgN/A
8:00 PM79 °FPassing clouds.5 mph84%29.98 "HgN/A
7:00 PM79 °FPassing clouds.8 mph84%29.98 "HgN/A
6:00 PM79 °FPassing clouds.10 mph84%29.95 "HgN/A
5:00 PM81 °FPassing clouds.10 mph79%29.95 "HgN/A
4:00 PM81 °FPassing clouds.14 mph79%29.95 "HgN/A
3:00 PM82 °FPassing clouds.15 mph74%29.92 "HgN/A
2:00 PM82 °FPassing clouds.16 mph74%29.95 "HgN/A
1:00 PM82 °FPassing clouds.17 mph79%29.95 "HgN/A
12:00 PM82 °FPassing clouds.15 mph79%29.98 "HgN/A
11:00 AM82 °FPassing clouds.9 mph79%30.01 "HgN/A
10:00 AM81 °FPassing clouds.10 mph79%30.01 "HgN/A
9:00 AM81 °FPassing clouds.6 mph79%30.01 "HgN/A
8:00 AM79 °FPassing clouds.5 mph74%30.01 "HgN/A
7:00 AM75 °FPassing clouds.7 mph78%29.98 "HgN/A
6:00 AM73 °FPassing clouds.8 mph83%29.95 "HgN/A
5:00 AM73 °FPassing clouds.7 mph83%29.92 "HgN/A
4:00 AM72 °FPassing clouds.1 mph94%29.92 "HgN/A
3:00 AM72 °FPassing clouds.2 mph94%29.92 "HgN/A
2:00 AM72 °FPassing clouds.1 mph88%29.95 "HgN/A
1:00 AM72 °FPassing clouds.2 mph88%29.95 "HgN/A
12:00 AM73 °FPassing clouds.6 mph89%29.98 "HgN/A
11:00 PM
Dec 19
75 °FPassing clouds.6 mph83%29.98 "HgN/A
Weather by CustomWeather, © 2014

See weather overviewHow to use our weather pages